Location: Campillo
(40.8621°N, 4.2488°W)
Time: 21:48:10
(UTC+00:00)

Cosmos 1633 Rocket - Pass Details

Date: 23 September 2021
Orbit: 607 x 623 km, 82.5° (Epoch: 23 October)

Event Time Altitude Azimuth Distance (km) Brightness Sun altitude
Rises 04:48:57 0° 336° (NNW) 2,912 6.4 -15.2°
Reaches altitude 10° 04:51:39 10° 320° (NW) 1,999 5.4 -14.7°
Enters shadow 04:54:19 20° 284° (WNW) 1,453 4.4 -14.2°
